GW7641 Weather Reports


time (UTC)temp
F
wind
direction
speed
knots
gust
knots
rain 1hr
in
rain 24hr
in
rain mn
in
humidity
%
barometer
mb
20260906220437 83 179 0.9 1.7 0.00 0.00 0.00 39 1007.2
20260906215936 83 149 0.9 2.6 0.00 0.00 0.00 39 1007.3
20260906215431 83 137 0.9 7.0 0.00 0.00 0.00 39 1007.3
20260906214929 83 185 0.9 2.6 0.00 0.00 0.00 38 1007.8
20260906214428 84 162 7.0 8.7 0.00 0.00 0.00 37 1007.8
20260906213927 84 210 3.5 7.0 0.00 0.00 0.00 37 1007.8
20260906213422 84 193 1.7 4.3 0.00 0.00 0.00 37 1008.0
20260906212920 83 134 2.6 6.1 0.00 0.00 0.00 37 1007.7
20260906212415 83 225 4.3 7.8 0.00 0.00 0.00 37 1007.8
20260906211915 83 135 0.9 0.9 0.00 0.00 0.00 38 1008.0
20260906211410 84 220 0.9 4.3 0.00 0.00 0.00 38 1008.1
20260906210911 83 293 0.9 0.9 0.00 0.00 0.00 38 1008.2
20260906210408 84 145 1.7 4.3 0.00 0.00 0.00 37 1008.0
20260906205907 83 136 0.9 4.3 0.00 0.00 0.00 37 1008.3
20260906205403 82 161 2.6 6.1 0.00 0.00 0.00 38 1008.5
20260906204859 83 191 7.8 9.6 0.00 0.00 0.00 38 1008.6
20260906204357 83 174 3.5 7.0 0.00 0.00 0.00 38 1008.2
20260906203857 82 146 2.6 4.3 0.00 0.00 0.00 38 1008.3
20260906203352 84 120 1.7 5.2 0.00 0.00 0.00 38 1008.3
20260906202850 83 231 3.5 6.1 0.00 0.00 0.00 37 1008.6
20260906202349 82 162 0.0 2.6 0.00 0.00 0.00 37 1008.3
20260906201849 82 137 0.0 0.0 0.00 0.00 0.00 38 1008.6
20260906201344 82 126 7.0 7.8 0.00 0.00 0.00 38 1008.5
20260906200839 83 263 0.0 0.0 0.00 0.00 0.00 38 1008.5
20260906200335 83 173 1.7 2.6 0.00 0.00 0.00 36 1008.7
20260906195830 82 94 0.0 0.0 0.00 0.00 0.00 37 1008.7
20260906195326 82 169 0.0 0.9 0.00 0.00 0.00 37 1008.8
20260906194822 82 146 0.9 1.7 0.00 0.00 0.00 37 1008.9
20260906194318 82 173 0.0 0.0 0.00 0.00 0.00 37 1008.7
20260906193812 82 129 2.6 6.1 0.00 0.00 0.00 37 1009.1
20260906193307 81 143 0.0 0.0 0.00 0.00 0.00 39 1008.8
20260906192804 82 152 1.7 4.3 0.00 0.00 0.00 38 1008.9
20260906192306 82 238 0.9 4.3 0.00 0.00 0.00 38 1009.1
20260906191802 82 199 0.0 0.9 0.00 0.00 0.00 37 1009.2
20260906191257 81 176 1.7 4.3 0.00 0.00 0.00 39 1009.1
20260906190752 81 147 2.6 4.3 0.00 0.00 0.00 40 1009.3
20260906190252 82 131 7.8 8.7 0.00 0.00 0.00 38 1009.3
20260906185751 81 170 0.0 1.7 0.00 0.00 0.00 39 1009.3
20260906185250 81 132 0.0 0.9 0.00 0.00 0.00 37 1009.3
20260906184745 82 129 0.0 0.0 0.00 0.00 0.00 38 1009.6
20260906184240 81 191 1.7 4.3 0.00 0.00 0.00 38 1009.8
20260906183736 81 149 0.0 0.0 0.00 0.00 0.00 38 1009.7
20260906183232 79 202 0.0 0.0 0.00 0.00 0.00 39 1009.8
20260906182732 79 123 0.0 0.0 0.00 0.00 0.00 39 1009.9
20260906182228 79 162 2.6 4.3 0.00 0.00 0.00 38 1009.9
20260906181723 79 137 0.9 2.6 0.00 0.00 0.00 40 1009.8
20260906181220 80 146 0.0 0.9 0.00 0.00 0.00 39 1010.1
20260906180719 78 180 0.0 0.0 0.00 0.00 0.00 41 1010.1
20260906180214 79 151 2.6 6.1 0.00 0.00 0.00 40 1010.3
20260906175712 78 182 3.5 5.2 0.00 0.00 0.00 40 1010.6
20260906175208 80 158 2.6 6.1 0.00 0.00 0.00 42 1010.6
20260906174706 80 224 0.0 0.0 0.00 0.00 0.00 38 1010.8
20260906174200 80 187 0.9 2.6 0.00 0.00 0.00 39 1010.6
20260906173656 79 103 0.0 0.0 0.00 0.00 0.00 38 1010.4
20260906173151 79 181 0.0 0.0 0.00 0.00 0.00 39 1010.8
20260906172651 79 252 0.0 0.0 0.00 0.00 0.00 38 1010.8
20260906172146 79 159 0.0 0.0 0.00 0.00 0.00 39 1010.8
20260906171646 79 135 0.0 0.0 0.00 0.00 0.00 39 1011.0
20260906171141 78 252 0.0 0.0 0.00 0.00 0.00 39 1011.0
20260906170638 78 298 0.0 0.0 0.00 0.00 0.00 39 1011.3
20260906170137 77 156 0.0 0.0 0.00 0.00 0.00 39 1011.0
20260906165633 77 162 0.0 0.0 0.00 0.00 0.00 41 1010.9
20260906165129 77 273 0.0 0.0 0.00 0.00 0.00 42 1011.0
20260906164627 76 193 0.0 0.0 0.00 0.00 0.00 42 1011.2
20260906164123 75 215 0.0 0.0 0.00 0.00 0.00 45 1011.3
20260906163619 74 193 0.0 0.0 0.00 0.00 0.00 46 1011.3
20260906163114 74 193 0.0 0.0 0.00 0.00 0.00 46 1011.2
20260906162611 74 167 0.0 0.0 0.00 0.00 0.00 47 1011.4
20260906162107 74 102 0.0 0.0 0.00 0.00 0.00 47 1011.0
20260906161607 73 208 0.0 0.0 0.00 0.00 0.00 46 1011.0
20260906161105 73 181 0.0 0.0 0.00 0.00 0.00 47 1010.9
20260906160605 74 146 0.0 0.0 0.00 0.00 0.00 46 1011.0
20260906160103 73 195 0.0 0.0 0.00 0.00 0.00 45 1010.7
20260906155601 75 212 0.0 0.0 0.00 0.00 0.00 45 1010.8
20260906155057 75 151 0.0 0.0 0.00 0.00 0.00 44 1011.0
20260906154552 75 130 0.0 0.0 0.00 0.00 0.00 44 1010.9
20260906154051 74 182 0.0 0.0 0.00 0.00 0.00 46 1010.8
20260906153550 74 179 0.0 0.0 0.00 0.00 0.00 45 1010.8
20260906153046 73 134 0.0 0.0 0.00 0.00 0.00 46 1010.7
20260906152545 73 241 0.0 0.0 0.00 0.00 0.00 45 1010.7
20260906152045 73 98 0.0 0.0 0.00 0.00 0.00 46 1010.9
20260906151540 73 144 0.0 0.9 0.00 0.00 0.00 46 1010.7
20260906151036 73 135 0.0 0.0 0.00 0.00 0.00 46 1010.9
20260906150531 73 157 0.0 0.0 0.00 0.00 0.00 45 1010.8
20260906150026 74 183 0.0 0.0 0.00 0.00 0.00 45 1010.8
20260906145525 73 196 0.0 0.0 0.00 0.00 0.00 46 1010.7
20260906145020 73 159 0.0 0.0 0.00 0.00 0.00 46 1010.4
20260906144514 71 240 0.0 0.0 0.00 0.00 0.00 49 1010.6
20260906144010 71 292 0.0 0.0 0.00 0.00 0.00 49 1010.7
20260906143505 71 139 0.0 0.0 0.00 0.00 0.00 50 1010.6
20260906143001 70 243 0.0 0.0 0.00 0.00 0.00 52 1010.7
20260906142501 68 241 0.0 0.0 0.00 0.00 0.00 53 1010.7
20260906141956 68 249 0.0 0.0 0.00 0.00 0.00 54 1010.4
20260906141455 68 259 0.0 0.0 0.00 0.00 0.00 53 1010.6
20260906140950 68 120 0.0 0.0 0.00 0.00 0.00 53 1010.4
20260906140445 67 147 0.0 0.0 0.00 0.00 0.00 56 1010.2
20260906135943 68 321 0.0 0.0 0.00 0.00 0.00 55 1010.4
20260906135441 66 149 0.0 0.0 0.00 0.00 0.00 56 1010.4
20260906134937 66 95 0.0 0.0 0.00 0.00 0.00 57 1010.6
20260906134433 66 145 0.0 0.0 0.00 0.00 0.00 55 1010.3
20260906133933 65 94 0.0 0.0 0.00 0.00 0.00 55 1010.2
20260906133429 65 77 0.0 0.0 0.00 0.00 0.00 56 1010.6
20260906132924 63 179 0.0 0.0 0.00 0.00 0.00 58 1010.2
20260906132419 63 212 0.0 0.0 0.00 0.00 0.00 58 1010.3
20260906131914 67 293 0.0 0.0 0.00 0.00 0.00 53 1010.1
20260906131410 66 122 0.0 0.0 0.00 0.00 0.00 54 1010.2
20260906130906 64 354 0.0 0.0 0.00 0.00 0.00 55 1009.9
20260906130405 64 98 0.0 0.0 0.00 0.00 0.00 57 1010.1
20260906125904 63 95 0.0 0.0 0.00 0.00 0.00 57 1009.9
20260906125401 64 66 0.0 0.0 0.00 0.00 0.00 56 1009.7
20260906124856 65 112 0.0 0.0 0.00 0.00 0.00 55 1009.7
20260906124352 65 67 0.0 0.0 0.00 0.00 0.00 56 1009.7
20260906123852 66 111 0.0 0.0 0.00 0.00 0.00 55 1009.6
20260906123346 64 39 0.0 0.0 0.00 0.00 0.00 56 1010.1
20260906122846 64 121 0.0 0.0 0.00 0.00 0.00 57 1009.7
20260906122341 63 136 0.0 0.0 0.00 0.00 0.00 59 1009.8
20260906121838 62 122 0.0 0.0 0.00 0.00 0.00 59 1009.8
20260906121334 64 150 0.0 0.0 0.00 0.00 0.00 59 1009.8
20260906120830 63 45 0.0 0.0 0.00 0.00 0.00 58 1009.9
20260906120325 61 99 0.0 0.0 0.00 0.00 0.00 61 1009.7
20260906115821 60 64 0.0 0.0 0.00 0.00 0.00 63 1009.9
20260906115317 59 125 0.0 0.0 0.00 0.00 0.00 65 1009.7
20260906114816 60 82 0.0 0.0 0.00 0.00 0.00 64 1010.2
20260906114311 62 170 0.0 0.0 0.00 0.00 0.00 61 1009.8
20260906113806 62 43 0.0 0.0 0.00 0.00 0.00 59 1009.7
20260906113306 63 107 0.0 0.0 0.00 0.00 0.00 58 1009.7
20260906112801 63 65 0.0 0.0 0.00 0.00 0.00 59 1009.8
20260906112257 61 86 0.0 0.0 0.00 0.00 0.00 60 1010.1
20260906111756 62 94 0.0 0.0 0.00 0.00 0.00 59 1009.8
20260906111255 63 129 0.0 0.0 0.00 0.00 0.00 58 1009.6
20260906110751 64 45 0.0 0.0 0.00 0.00 0.00 57 1009.7
20260906110247 64 98 0.0 0.0 0.00 0.00 0.00 56 1009.7
20260906105746 64 61 0.0 0.0 0.00 0.00 0.00 56 1009.7
20260906105242 64 30 0.0 0.0 0.00 0.00 0.00 56 1009.6
20260906104737 65 90 0.0 0.0 0.00 0.00 0.00 55 1009.7
20260906104236 65 121 0.0 0.0 0.00 0.00 0.00 55 1009.6
20260906103734 65 109 0.0 0.0 0.00 0.00 0.00 54 1009.8
20260906103234 65 120 0.0 0.0 0.00 0.00 0.00 53 1009.7
20260906102729 64 97 0.0 0.0 0.00 0.00 0.00 54 1009.7
20260906102229 64 116 0.0 0.0 0.00 0.00 0.00 54 1009.7
20260906101724 63 81 0.0 0.0 0.00 0.00 0.00 56 1009.7
20260906101219 64 98 0.0 0.0 0.00 0.00 0.00 55 1009.9
20260906100714 65 36 0.0 0.0 0.00 0.00 0.00 54 1009.8
20260906100209 66 88 0.0 0.0 0.00 0.00 0.00 53 1009.7
20260906095709 65 78 0.0 0.0 0.00 0.00 0.00 54 1009.8
20260906095204 64 89 0.0 0.0 0.00 0.00 0.00 54 1009.8
20260906094703 64 141 0.0 0.0 0.00 0.00 0.00 55 1009.8
20260906094159 64 343 0.0 0.0 0.00 0.00 0.00 55 1009.9
20260906093655 64 85 0.0 0.0 0.00 0.00 0.00 55 1009.4
20260906093150 65 125 0.0 0.0 0.00 0.00 0.00 54 1009.7
20260906092645 66 56 0.0 0.0 0.00 0.00 0.00 53 1009.3
20260906092144 65 10 0.0 0.0 0.00 0.00 0.00 54 1009.3
20260906091641 65 11 0.0 0.0 0.00 0.00 0.00 54 1009.7
20260906091137 65 83 0.0 0.0 0.00 0.00 0.00 54 1009.7
20260906090633 65 280 0.0 0.0 0.00 0.00 0.00 55 1009.6
20260906090132 64 337 0.0 0.0 0.00 0.00 0.00 55 1009.6
20260906085631 64 21 0.0 0.0 0.00 0.00 0.00 55 1009.6
20260906085132 65 86 0.0 0.0 0.00 0.00 0.00 55 1009.2
20260906084632 65 139 0.0 0.0 0.00 0.00 0.00 55 1009.4
20260906084131 65 224 0.0 0.0 0.00 0.00 0.00 55 1009.3
20260906083626 65 332 0.0 0.0 0.00 0.00 0.00 54 1009.7
20260906083127 65 25 0.0 0.0 0.00 0.00 0.00 54 1009.3
20260906082622 65 55 0.0 0.0 0.00 0.00 0.00 54 1009.3
20260906082118 66 76 0.0 0.0 0.00 0.00 0.00 53 1009.3
20260906081613 65 146 0.0 0.0 0.00 0.00 0.00 53 1009.6
20260906081108 66 27 0.0 0.0 0.00 0.00 0.00 53 1009.6
20260906080605 66 81 0.0 0.0 0.00 0.00 0.00 53 1009.3
20260906075601 66 134 0.0 0.0 0.00 0.00 0.00 52 1009.2
20260906075055 66 91 0.0 0.0 0.00 0.00 0.00 52 1009.3
20260906074550 67 134 0.0 0.0 0.00 0.00 0.00 52 1009.6
20260906074049 66 91 0.0 0.0 0.00 0.00 0.00 52 1009.3
20260906073544 65 325 0.0 0.0 0.00 0.00 0.00 53 1009.3
20260906073040 66 36 0.0 0.0 0.00 0.00 0.00 53 1009.6
20260906072535 66 101 0.0 0.0 0.00 0.00 0.00 52 1009.6
20260906072031 67 128 0.0 0.0 0.00 0.00 0.00 52 1009.6
20260906071527 68 90 0.0 0.0 0.00 0.00 0.00 51 1009.3
20260906071022 67 55 0.0 0.0 0.00 0.00 0.00 51 1009.3
20260906070518 66 74 0.0 0.0 0.00 0.00 0.00 53 1009.4
20260906070014 63 53 0.0 0.0 0.00 0.00 0.00 59 1009.6
20260906065513 66 200 0.0 0.0 0.00 0.00 0.00 54 1009.7
20260906065009 66 26 0.0 0.0 0.00 0.00 0.00 53 1009.6
20260906064505 65 80 0.0 0.0 0.00 0.00 0.00 54 1009.4
20260906063959 61 71 0.0 0.0 0.00 0.00 0.00 58 1009.4
20260906063455 61 184 0.0 0.0 0.00 0.00 0.00 60 1009.3
20260906062955 61 159 0.0 0.0 0.00 0.00 0.00 60 1009.6
20260906062450 61 144 0.0 0.0 0.00 0.00 0.00 60 1009.4
20260906061945 60 133 0.0 0.0 0.00 0.00 0.00 60 1009.6
20260906061442 59 122 0.0 0.0 0.00 0.00 0.00 62 1009.6
20260906060941 60 135 0.0 0.0 0.00 0.00 0.00 61 1009.4
20260906060438 60 78 0.0 0.0 0.00 0.00 0.00 61 1009.3
20260906055935 60 149 0.0 0.0 0.00 0.00 0.00 60 1009.6
20260906055430 60 122 0.0 0.0 0.00 0.00 0.00 60 1009.4
20260906054926 60 118 0.0 0.0 0.00 0.00 0.00 60 1009.3
20260906054420 60 164 0.0 0.0 0.00 0.00 0.00 61 1009.6
20260906053916 61 172 0.0 0.0 0.00 0.00 0.00 60 1009.4
20260906053412 61 89 0.0 0.0 0.00 0.00 0.00 58 1009.7
20260906052908 62 104 0.0 0.0 0.00 0.00 0.00 58 1009.6
20260906052404 60 137 0.0 0.0 0.00 0.00 0.00 58 1009.8
20260906051900 60 119 0.0 0.0 0.00 0.00 0.00 60 1009.8
20260906051400 61 137 0.0 0.0 0.00 0.00 0.00 59 1009.9
20260906050856 60 119 0.0 0.0 0.00 0.00 0.00 59 1009.8
20260906050351 60 127 0.0 0.0 0.00 0.00 0.00 59 1009.9
20260906045850 61 137 0.0 0.0 0.00 0.00 0.00 58 1009.8
20260906045349 61 117 0.0 0.0 0.00 0.00 0.00 58 1009.8
20260906044846 61 117 0.0 0.0 0.00 0.00 0.00 58 1009.7
20260906044345 62 113 0.0 0.0 0.00 0.00 0.00 58 1009.8
20260906043841 62 124 0.0 0.0 0.00 0.00 0.00 57 1009.7
20260906043337 62 151 0.0 0.0 0.00 0.00 0.00 56 1009.7
20260906042832 62 117 0.0 0.0 0.00 0.00 0.00 56 1009.6
20260906042331 62 156 0.0 0.0 0.00 0.00 0.00 57 1009.8
20260906041827 62 86 0.0 0.0 0.00 0.00 0.00 56 1009.4
20260906041322 62 158 0.0 0.0 0.00 0.00 0.00 57 1009.6
20260906040822 62 135 0.0 0.0 0.00 0.00 0.00 57 1009.8
20260906040318 62 125 0.0 0.0 0.00 0.00 0.00 57 1009.6
20260906035813 62 126 0.0 0.0 0.00 0.00 0.00 56 1009.4
20260906035308 62 127 0.0 0.0 0.00 0.00 0.00 57 1009.4
20260906034804 62 142 0.0 0.0 0.00 0.00 0.00 56 1009.3
20260906034303 62 107 0.0 0.0 0.00 0.00 0.00 56 1009.4
20260906033759 62 135 0.0 0.0 0.00 0.00 0.00 56 1009.6
20260906033259 63 113 0.0 0.0 0.00 0.00 0.00 55 1009.7
20260906032755 63 139 0.0 0.0 0.00 0.00 0.00 54 1009.3
20260906032256 64 113 0.0 0.0 0.00 0.00 0.00 54 1009.6
20260906031751 64 134 0.0 0.0 0.00 0.00 0.00 53 1009.4
20260906031247 65 113 0.0 0.0 0.00 0.00 0.00 53 1009.6
20260906030746 66 120 0.0 0.0 0.00 0.00 0.00 51 1009.4
20260906030242 65 154 0.0 0.0 0.00 0.00 0.00 51 1009.6
20260906025741 64 151 0.0 0.0 0.00 0.00 0.00 53 1009.3
20260906025235 64 151 0.0 0.0 0.00 0.00 0.00 53 1009.2
20260906024734 65 123 0.0 0.0 0.00 0.00 0.00 52 1009.4
20260906024233 65 117 0.0 0.0 0.00 0.00 0.00 52 1009.2
20260906023729 66 147 0.0 0.0 0.00 0.00 0.00 51 1008.9
20260906023225 66 128 0.0 0.0 0.00 0.00 0.00 50 1009.1
20260906022720 66 110 0.0 0.0 0.00 0.00 0.00 50 1009.1
20260906022215 66 99 0.0 0.0 0.00 0.00 0.00 50 1008.9
20260906021711 67 155 0.0 0.0 0.00 0.00 0.00 49 1008.7
20260906021210 68 190 0.0 0.0 0.00 0.00 0.00 48 1008.5
20260906020705 68 124 0.0 0.0 0.00 0.00 0.00 48 1008.7
20260906020159 68 153 0.0 0.0 0.00 0.00 0.00 48 1008.6
20260906015654 68 129 0.0 0.0 0.00 0.00 0.00 48 1008.8
20260906015153 68 122 0.0 0.0 0.00 0.00 0.00 48 1008.7
20260906014652 69 144 0.0 0.0 0.00 0.00 0.00 47 1008.6
20260906014149 70 151 0.0 0.0 0.00 0.00 0.00 46 1008.7
20260906013644 71 129 0.0 0.0 0.00 0.00 0.00 45 1008.8
20260906013139 73 142 0.0 0.0 0.00 0.00 0.00 43 1008.6
20260906012640 74 82 0.0 0.0 0.00 0.00 0.00 42 1008.5
20260906012139 75 120 0.0 0.0 0.00 0.00 0.00 41 1008.6
20260906011636 75 106 0.0 0.0 0.00 0.00 0.00 41 1008.5
20260906011130 76 55 0.0 0.0 0.00 0.00 0.00 40 1008.6
20260906010626 76 161 0.0 0.0 0.00 0.00 0.00 39 1008.6
20260906010122 76 75 0.0 0.0 0.00 0.00 0.00 40 1008.3
20260906005621 76 161 0.0 0.0 0.00 0.00 0.00 40 1008.6
20260906005121 76 79 0.0 0.0 0.00 0.00 0.00 39 1008.5
20260906004620 77 128 0.0 0.0 0.00 0.00 0.00 39 1008.5
20260906004115 77 48 0.0 0.0 0.00 0.00 0.00 39 1008.6
20260906003610 78 105 0.0 0.0 0.00 0.00 0.00 38 1008.7
20260906003107 79 92 0.0 0.0 0.00 0.00 0.00 37 1008.6
20260906002606 80 141 0.0 0.9 0.00 0.00 0.00 36 1008.3
20260906002101 80 65 4.3 6.1 0.00 0.00 0.00 36 1008.3
20260906001557 81 164 0.9 4.3 0.00 0.00 0.00 35 1008.2
20260906001057 81 158 0.0 0.9 0.00 0.00 0.00 35 1008.0
20260906000553 81 126 0.0 0.9 0.00 0.00 0.00 36 1008.1
20260906000048 81 172 2.6 6.1 0.00 0.00 0.00 35 1008.3
20260905235547 80 124 4.3 7.0 0.00 0.00 0.00 36 1008.3
20260905235042 80 164 0.0 0.9 0.00 0.00 0.00 36 1008.2
20260905234537 82 123 5.2 7.0 0.00 0.00 0.00 35 1008.0
20260905234032 81 171 0.0 0.0 0.00 0.00 0.00 35 1008.0
20260905233527 80 154 0.0 0.0 0.00 0.00 0.00 35 1008.2
20260905233027 81 165 1.7 2.6 0.00 0.00 0.00 35 1008.2
20260905232522 83 168 5.2 7.8 0.00 0.00 0.00 33 1008.1
20260905232018 83 125 4.3 9.6 0.00 0.00 0.00 33 1008.1
20260905231513 83 168 0.0 0.0 0.00 0.00 0.00 33 1007.8
20260905231009 83 207 3.5 8.7 0.00 0.00 0.00 33 1008.1
20260905230508 82 161 0.0 0.0 0.00 0.00 0.00 31 1007.7
20260905230006 83 201 0.0 0.9 0.00 0.00 0.00 32 1008.2
20260905225501 84 152 3.5 7.0 0.00 0.00 0.00 31 1007.7
20260905224956 84 222 0.0 0.0 0.00 0.00 0.00 31 1008.0
20260905224452 84 150 0.0 0.0 0.00 0.00 0.00 32 1008.0
20260905223951 85 154 0.9 5.2 0.00 0.00 0.00 31 1008.2
20260905223449 85 230 0.0 0.0 0.00 0.00 0.00 31 1008.0
20260905222944 85 169 0.0 0.0 0.00 0.00 0.00 30 1008.0
20260905222443 83 190 0.0 0.0 0.00 0.00 0.00 31 1008.2
20260905221939 83 166 3.5 6.1 0.00 0.00 0.00 31 1008.0
20260905221435 83 125 1.7 4.3 0.00 0.00 0.00 31 1008.2
20260905220932 84 56 1.7 2.6 0.00 0.00 0.00 31 1008.2